JBU223 KSLC-KSAN

Flight info

Callsign JBU223
Flight time 1h 38m
Altitude 36000
Route ZIONZ1 EHK LAKRR Q73 LVELL LUCKI1
Aircraft A320/M-SDE3FGHIRWY/LB1

Departure

Time 2026-04-21 06:58
Airport Salt Lake City International Airport (KSLC)

Arrival

Time 2026-04-21 08:37
Airport San Diego International Airport (KSAN)
Time Latitude Longitude Altitude Speed Heading
2026-04-21 06:25 40.78957 -111.98767 4230 ft 0 kts 175°
2026-04-21 06:45 40.78964 -111.98768 4230 ft 2 kts 175°
2026-04-21 06:46 40.78984 -111.98770 4230 ft 3 kts 176°
2026-04-21 06:46 40.79004 -111.98772 4230 ft 3 kts 185°
2026-04-21 06:46 40.79022 -111.98766 4230 ft 3 kts 222°
2026-04-21 06:46 40.79028 -111.98757 4230 ft 1 kts 265°
2026-04-21 06:47 40.79028 -111.98756 4230 ft 1 kts 265°
2026-04-21 06:50 40.79028 -111.98760 4230 ft 4 kts 265°
2026-04-21 06:50 40.79025 -111.98819 4229 ft 8 kts 265°
2026-04-21 06:50 40.79020 -111.98893 4229 ft 8 kts 265°
2026-04-21 06:51 40.79022 -111.98954 4229 ft 2 kts 308°
2026-04-21 06:51 40.79041 -111.98952 4229 ft 4 kts
2026-04-21 06:51 40.79068 -111.98953 4230 ft 4 kts 356°
2026-04-21 06:51 40.79091 -111.98956 4230 ft 4 kts 347°
2026-04-21 06:52 40.79121 -111.98989 4231 ft 7 kts 297°
2026-04-21 06:52 40.79122 -111.99052 4232 ft 8 kts 264°
2026-04-21 06:52 40.79116 -111.99128 4232 ft 9 kts 264°
2026-04-21 06:52 40.79110 -111.99210 4231 ft 9 kts 264°
2026-04-21 06:53 40.79104 -111.99294 4233 ft 9 kts 264°
2026-04-21 06:53 40.79098 -111.99381 4233 ft 10 kts 265°
2026-04-21 06:53 40.79095 -111.99472 4233 ft 10 kts 284°
2026-04-21 06:53 40.79150 -111.99522 4232 ft 11 kts 352°
2026-04-21 06:54 40.79231 -111.99532 4230 ft 14 kts 355°
2026-04-21 06:54 40.79336 -111.99544 4227 ft 17 kts 355°
2026-04-21 06:54 40.79457 -111.99559 4227 ft 18 kts 354°
2026-04-21 06:54 40.79587 -111.99573 4225 ft 20 kts 355°
2026-04-21 06:55 40.79718 -111.99588 4227 ft 20 kts 355°
2026-04-21 06:55 40.79853 -111.99605 4228 ft 20 kts 354°
2026-04-21 06:55 40.79988 -111.99623 4230 ft 19 kts 355°
2026-04-21 06:55 40.80115 -111.99633 4234 ft 18 kts 354°
2026-04-21 06:56 40.80240 -111.99650 4232 ft 19 kts 354°
2026-04-21 06:56 40.80380 -111.99667 4231 ft 21 kts 355°
2026-04-21 06:56 40.80526 -111.99683 4231 ft 22 kts 355°
2026-04-21 06:56 40.80662 -111.99701 4225 ft 14 kts 343°
2026-04-21 06:57 40.80696 -111.99804 4225 ft 13 kts 266°
2026-04-21 06:57 40.80673 -111.99903 4228 ft 11 kts 222°
2026-04-21 06:57 40.80601 -111.99909 4228 ft 11 kts 174°
2026-04-21 06:57 40.80495 -111.99897 4228 ft 32 kts 175°
2026-04-21 06:58 40.80033 -111.99843 4231 ft 98 kts 175°
2026-04-21 06:58 40.79179 -111.99744 4230 ft 149 kts 175°
2026-04-21 06:58 40.78311 -111.99628 4390 ft 165 kts 176°
2026-04-21 06:58 40.77140 -111.99497 4946 ft 170 kts 172°
2026-04-21 06:59 40.75970 -111.99246 5627 ft 170 kts 169°
2026-04-21 06:59 40.74784 -111.98971 6208 ft 181 kts 172°
2026-04-21 06:59 40.73462 -111.98755 6482 ft 202 kts 172°
2026-04-21 06:59 40.71987 -111.98556 6647 ft 225 kts 173°
2026-04-21 07:00 40.70838 -111.98415 6781 ft 241 kts 174°
2026-04-21 07:00 40.69082 -111.98212 7004 ft 264 kts 174°
2026-04-21 07:00 40.67228 -111.97976 7475 ft 273 kts 175°
2026-04-21 07:00 40.65350 -111.97731 8420 ft 267 kts 176°
2026-04-21 07:01 40.63518 -111.97489 9243 ft 268 kts 176°
2026-04-21 07:01 40.61645 -111.97243 9905 ft 275 kts 176°
2026-04-21 07:01 40.57624 -111.96718 10524 ft 310 kts 176°
2026-04-21 07:02 40.55415 -111.96430 10859 ft 324 kts 176°
2026-04-21 07:02 40.53150 -111.96133 11464 ft 329 kts 176°
2026-04-21 07:02 40.50883 -111.95834 12116 ft 332 kts 175°
2026-04-21 07:02 40.48573 -111.95530 12805 ft 334 kts 175°
2026-04-21 07:03 40.46251 -111.95229 13487 ft 336 kts 175°
2026-04-21 07:03 40.43906 -111.94977 14115 ft 339 kts 177°
2026-04-21 07:03 40.41534 -111.94796 14681 ft 342 kts 178°
2026-04-21 07:03 40.39172 -111.94650 15243 ft 345 kts 178°
2026-04-21 07:04 40.36758 -111.94512 15819 ft 349 kts 179°
2026-04-21 07:04 40.34313 -111.94368 16387 ft 352 kts 179°
2026-04-21 07:04 40.31850 -111.94214 16944 ft 356 kts 178°
2026-04-21 07:04 40.29358 -111.94048 17517 ft 359 kts 179°
2026-04-21 07:05 40.26885 -111.93937 18055 ft 362 kts 183°
2026-04-21 07:05 40.24377 -111.94261 18604 ft 364 kts 188°
2026-04-21 07:05 40.21853 -111.94662 19114 ft 367 kts 188°
2026-04-21 07:05 40.19305 -111.95063 19617 ft 371 kts 188°
2026-04-21 07:06 40.16727 -111.95471 20129 ft 375 kts 188°
2026-04-21 07:06 40.14124 -111.95882 20619 ft 378 kts 188°
2026-04-21 07:06 40.11502 -111.96292 21094 ft 382 kts 188°
2026-04-21 07:06 40.08843 -111.96691 21572 ft 386 kts 188°
2026-04-21 07:07 40.06163 -111.97080 21976 ft 389 kts 188°
2026-04-21 07:07 40.03458 -111.97467 22428 ft 393 kts 187°
2026-04-21 07:07 40.00725 -111.97859 22894 ft 397 kts 187°
2026-04-21 07:07 39.97966 -111.98260 23358 ft 400 kts 187°
2026-04-21 07:08 39.95418 -111.98632 23736 ft 403 kts 187°
2026-04-21 07:08 39.92585 -111.99044 24149 ft 405 kts 187°
2026-04-21 07:08 39.89779 -111.99448 24557 ft 407 kts 187°
2026-04-21 07:08 39.86959 -111.99858 24963 ft 408 kts 187°
2026-04-21 07:09 39.84132 -112.00272 25354 ft 410 kts 187°
2026-04-21 07:09 39.81292 -112.00688 25734 ft 412 kts 187°
2026-04-21 07:09 39.78432 -112.01105 26121 ft 414 kts 187°
2026-04-21 07:09 39.75567 -112.01520 26498 ft 415 kts 187°
2026-04-21 07:10 39.72689 -112.01939 26874 ft 417 kts 187°
2026-04-21 07:10 39.69795 -112.02358 27251 ft 418 kts 187°
2026-04-21 07:10 39.66890 -112.02778 27624 ft 420 kts 187°
2026-04-21 07:10 39.64021 -112.03194 27988 ft 422 kts 187°
2026-04-21 07:11 39.61102 -112.03618 28343 ft 423 kts 187°
2026-04-21 07:11 39.58160 -112.04044 28704 ft 425 kts 187°
2026-04-21 07:11 39.55220 -112.04467 29054 ft 427 kts 187°
2026-04-21 07:11 39.52262 -112.04890 29411 ft 428 kts 187°
2026-04-21 07:12 39.49285 -112.05318 29762 ft 430 kts 188°
2026-04-21 07:12 39.46302 -112.05748 30084 ft 432 kts 187°
2026-04-21 07:12 39.43318 -112.06174 30455 ft 431 kts 187°
2026-04-21 07:12 39.40339 -112.06597 30855 ft 430 kts 187°
2026-04-21 07:13 39.37365 -112.07019 31256 ft 428 kts 187°
2026-04-21 07:13 39.34440 -112.07434 31657 ft 427 kts 187°
2026-04-21 07:13 39.31491 -112.07853 32067 ft 426 kts 187°
2026-04-21 07:13 39.28584 -112.08267 32476 ft 425 kts 187°
2026-04-21 07:14 39.25639 -112.08686 32896 ft 424 kts 187°
2026-04-21 07:14 39.22714 -112.09100 33324 ft 422 kts 187°
2026-04-21 07:14 39.19801 -112.09513 33758 ft 421 kts 187°
2026-04-21 07:14 39.16890 -112.09928 34149 ft 420 kts 188°
2026-04-21 07:15 39.14034 -112.10649 34497 ft 417 kts 197°
2026-04-21 07:15 39.11329 -112.11978 34834 ft 415 kts 207°
2026-04-21 07:15 39.08800 -112.13782 35182 ft 414 kts 210°
2026-04-21 07:15 39.06306 -112.15617 35533 ft 412 kts 209°
2026-04-21 07:16 39.03847 -112.17416 35863 ft 410 kts 209°
2026-04-21 07:16 39.01361 -112.19228 36049 ft 410 kts 209°
2026-04-21 07:16 38.96363 -112.22857 36101 ft 414 kts 209°
2026-04-21 07:17 38.91349 -112.26498 36107 ft 414 kts 209°
2026-04-21 07:17 38.86336 -112.30145 36102 ft 414 kts 209°
2026-04-21 07:18 38.81316 -112.33778 36080 ft 414 kts 209°
2026-04-21 07:18 38.76290 -112.37407 36063 ft 414 kts 209°
2026-04-21 07:19 38.71269 -112.41034 36034 ft 414 kts 209°
2026-04-21 07:19 38.66237 -112.44666 35983 ft 415 kts 209°
2026-04-21 07:20 38.61249 -112.48257 35999 ft 415 kts 208°
2026-04-21 07:20 38.56250 -112.51846 36003 ft 414 kts 208°
2026-04-21 07:21 38.51232 -112.55446 35999 ft 413 kts 208°
2026-04-21 07:21 38.46222 -112.59037 36006 ft 413 kts 208°
2026-04-21 07:22 38.41207 -112.62625 36019 ft 413 kts 208°
2026-04-21 07:22 38.36194 -112.66204 36034 ft 413 kts 208°
2026-04-21 07:23 38.31178 -112.69777 36035 ft 413 kts 208°
2026-04-21 07:23 38.26169 -112.73340 36028 ft 413 kts 208°
2026-04-21 07:24 38.21185 -112.76885 36024 ft 413 kts 208°
2026-04-21 07:24 38.16168 -112.80446 36015 ft 413 kts 208°
2026-04-21 07:25 38.11154 -112.83990 36006 ft 412 kts 208°
2026-04-21 07:25 38.06142 -112.87534 35987 ft 412 kts 208°
2026-04-21 07:26 38.01139 -112.91066 35986 ft 411 kts 208°
2026-04-21 07:26 37.96162 -112.94565 36038 ft 411 kts 208°
2026-04-21 07:27 37.91160 -112.98084 36058 ft 411 kts 208°
2026-04-21 07:27 37.86148 -113.01623 36101 ft 412 kts 208°
2026-04-21 07:28 37.81174 -113.05113 36143 ft 412 kts 208°
2026-04-21 07:28 37.76184 -113.08634 36161 ft 412 kts 209°
2026-04-21 07:29 37.71220 -113.12286 36169 ft 413 kts 210°
2026-04-21 07:29 37.66257 -113.15961 36160 ft 413 kts 210°
2026-04-21 07:30 37.61323 -113.19581 36141 ft 413 kts 210°
2026-04-21 07:30 37.56357 -113.23213 36108 ft 413 kts 210°
2026-04-21 07:31 37.51380 -113.26840 36068 ft 413 kts 210°
2026-04-21 07:31 37.46678 -113.30252 36028 ft 413 kts 210°
2026-04-21 07:32 37.41702 -113.33862 35989 ft 413 kts 210°
2026-04-21 07:32 37.36720 -113.37476 35964 ft 413 kts 210°
2026-04-21 07:33 37.31860 -113.41236 35956 ft 413 kts 210°
2026-04-21 07:34 37.26854 -113.44772 35971 ft 413 kts 208°
2026-04-21 07:34 37.21879 -113.48213 36020 ft 412 kts 209°
2026-04-21 07:35 37.16891 -113.51765 36029 ft 412 kts 210°
2026-04-21 07:35 37.11934 -113.55353 36028 ft 413 kts 210°
2026-04-21 07:36 37.07565 -113.58517 36027 ft 414 kts 210°
2026-04-21 07:36 37.02564 -113.62117 36030 ft 414 kts 210°
2026-04-21 07:37 36.97577 -113.65685 36015 ft 414 kts 210°
2026-04-21 07:37 36.92566 -113.69265 35999 ft 415 kts 210°
2026-04-21 07:38 36.87549 -113.72847 35968 ft 415 kts 210°
2026-04-21 07:38 36.83375 -113.75821 35947 ft 416 kts 210°
2026-04-21 07:39 36.77531 -113.79991 35919 ft 416 kts 210°
2026-04-21 07:39 36.73317 -113.82998 35918 ft 417 kts 210°
2026-04-21 07:40 36.68279 -113.86572 35925 ft 416 kts 210°
2026-04-21 07:40 36.62423 -113.90714 35904 ft 416 kts 210°
2026-04-21 07:41 36.58203 -113.93702 35906 ft 416 kts 210°
2026-04-21 07:41 36.53207 -113.97237 35908 ft 416 kts 210°
2026-04-21 07:42 36.48164 -114.00793 35886 ft 416 kts 210°
2026-04-21 07:42 36.43127 -114.04340 35885 ft 416 kts 210°
2026-04-21 07:43 36.38093 -114.07886 35884 ft 416 kts 209°
2026-04-21 07:43 36.33060 -114.11428 35878 ft 415 kts 209°
2026-04-21 07:44 36.28067 -114.14934 35861 ft 415 kts 209°
2026-04-21 07:44 36.23039 -114.18463 35859 ft 415 kts 209°
2026-04-21 07:45 36.18009 -114.21986 35861 ft 415 kts 209°
2026-04-21 07:45 36.12963 -114.25513 35860 ft 415 kts 209°
2026-04-21 07:46 36.08125 -114.29399 35846 ft 416 kts 221°
2026-04-21 07:46 36.04194 -114.34618 35846 ft 417 kts 227°
2026-04-21 07:47 36.00340 -114.39980 35852 ft 418 kts 227°
2026-04-21 07:47 35.96468 -114.45335 35870 ft 418 kts 227°
2026-04-21 07:48 35.92596 -114.50678 35892 ft 417 kts 227°
2026-04-21 07:48 35.88722 -114.56017 35907 ft 417 kts 226°
2026-04-21 07:49 35.84844 -114.61349 35841 ft 417 kts 226°
2026-04-21 07:49 35.80973 -114.66675 35914 ft 417 kts 226°
2026-04-21 07:50 35.77100 -114.71998 35914 ft 417 kts 226°
2026-04-21 07:50 35.73246 -114.77285 35954 ft 417 kts 226°
2026-04-21 07:51 35.69364 -114.82594 35963 ft 417 kts 226°
2026-04-21 07:51 35.65477 -114.87897 35962 ft 417 kts 226°
2026-04-21 07:52 35.61596 -114.93210 35961 ft 417 kts 226°
2026-04-21 07:52 35.57722 -114.98521 35961 ft 417 kts 226°
2026-04-21 07:53 35.53836 -115.03812 36000 ft 417 kts 226°
2026-04-21 07:53 35.49392 -115.08215 35994 ft 414 kts 208°
2026-04-21 07:54 35.44047 -115.10800 35981 ft 413 kts 199°
2026-04-21 07:54 35.38584 -115.13078 35981 ft 414 kts 199°
2026-04-21 07:55 35.33132 -115.15355 35997 ft 414 kts 199°
2026-04-21 07:55 35.27695 -115.17624 35996 ft 414 kts 199°
2026-04-21 07:56 35.22261 -115.19894 35987 ft 414 kts 199°
2026-04-21 07:56 35.16798 -115.22166 35987 ft 414 kts 199°
2026-04-21 07:57 35.11256 -115.24082 35978 ft 414 kts 193°
2026-04-21 07:57 35.05633 -115.25609 35970 ft 414 kts 193°
2026-04-21 07:58 35.00011 -115.27138 35981 ft 414 kts 193°
2026-04-21 07:58 34.94389 -115.28662 35958 ft 414 kts 193°
2026-04-21 07:59 34.88802 -115.30167 35965 ft 414 kts 193°
2026-04-21 07:59 34.83159 -115.31684 35952 ft 414 kts 193°
2026-04-21 08:00 34.77582 -115.33287 35959 ft 413 kts 199°
2026-04-21 08:00 34.72134 -115.35536 35947 ft 413 kts 199°
2026-04-21 08:01 34.66665 -115.37766 35942 ft 413 kts 199°
2026-04-21 08:02 34.58522 -115.41068 35931 ft 413 kts 198°
2026-04-21 08:02 34.53072 -115.43280 35921 ft 413 kts 199°
2026-04-21 08:03 34.47619 -115.45498 35920 ft 413 kts 199°
2026-04-21 08:03 34.42169 -115.47710 35912 ft 413 kts 198°
2026-04-21 08:04 34.36785 -115.50015 35911 ft 414 kts 205°
2026-04-21 08:04 34.31805 -115.53524 35918 ft 414 kts 211°
2026-04-21 08:05 34.26902 -115.57152 35924 ft 414 kts 211°
2026-04-21 08:05 34.21970 -115.60777 35933 ft 414 kts 208°
2026-04-21 08:06 34.16694 -115.63539 35921 ft 414 kts 201°
2026-04-21 08:06 34.11322 -115.66081 35951 ft 415 kts 201°
2026-04-21 08:07 34.05922 -115.68629 35709 ft 420 kts 201°
2026-04-21 08:07 34.03199 -115.69910 35107 ft 421 kts 201°
2026-04-21 08:07 34.00480 -115.71190 34692 ft 417 kts 201°
2026-04-21 08:07 33.97788 -115.72454 34240 ft 414 kts 201°
2026-04-21 08:08 33.95116 -115.73709 33755 ft 412 kts 201°
2026-04-21 08:08 33.92453 -115.74962 33249 ft 409 kts 201°
2026-04-21 08:08 33.89819 -115.76215 32771 ft 405 kts 202°
2026-04-21 08:08 33.87213 -115.77483 32288 ft 402 kts 203°
2026-04-21 08:09 33.84637 -115.78756 31801 ft 400 kts 203°
2026-04-21 08:09 33.82063 -115.80032 31324 ft 398 kts 203°
2026-04-21 08:09 33.79544 -115.81278 30855 ft 396 kts 203°
2026-04-21 08:09 33.76999 -115.82533 30386 ft 394 kts 203°
2026-04-21 08:10 33.74459 -115.83760 29899 ft 392 kts 202°
2026-04-21 08:10 33.71922 -115.84952 29413 ft 389 kts 202°
2026-04-21 08:10 33.69408 -115.86119 28957 ft 386 kts 202°
2026-04-21 08:10 33.66915 -115.87272 28531 ft 383 kts 202°
2026-04-21 08:11 33.64440 -115.88419 28088 ft 380 kts 202°
2026-04-21 08:11 33.61969 -115.89570 27683 ft 377 kts 202°
2026-04-21 08:11 33.59631 -115.90660 27298 ft 375 kts 201°
2026-04-21 08:11 33.57211 -115.91789 26884 ft 373 kts 201°
2026-04-21 08:12 33.54795 -115.92920 26491 ft 371 kts 202°
2026-04-21 08:12 33.52523 -115.94361 26090 ft 369 kts 214°
2026-04-21 08:12 33.50567 -115.96352 25673 ft 370 kts 226°
2026-04-21 08:12 33.48981 -115.98788 25211 ft 372 kts 233°
2026-04-21 08:13 33.47511 -116.01329 24735 ft 372 kts 233°
2026-04-21 08:13 33.46037 -116.03874 24297 ft 372 kts 232°
2026-04-21 08:13 33.44560 -116.06418 23832 ft 372 kts 232°
2026-04-21 08:13 33.43081 -116.08966 23353 ft 372 kts 232°
2026-04-21 08:14 33.41603 -116.11508 22867 ft 370 kts 232°
2026-04-21 08:14 33.40138 -116.14026 22424 ft 368 kts 232°
2026-04-21 08:14 33.38697 -116.16502 21981 ft 365 kts 232°
2026-04-21 08:14 33.37249 -116.18987 21538 ft 362 kts 232°
2026-04-21 08:15 33.35815 -116.21451 21095 ft 360 kts 232°
2026-04-21 08:15 33.34281 -116.23791 20656 ft 355 kts 223°
2026-04-21 08:15 33.32403 -116.25668 20238 ft 349 kts 212°
2026-04-21 08:15 33.30297 -116.27035 19844 ft 337 kts 205°
2026-04-21 08:16 33.28222 -116.28247 19445 ft 328 kts 205°
2026-04-21 08:16 33.26180 -116.29442 19046 ft 325 kts 205°
2026-04-21 08:16 33.24149 -116.30631 18648 ft 324 kts 205°
2026-04-21 08:16 33.22129 -116.31813 18250 ft 322 kts 205°
2026-04-21 08:17 33.20119 -116.32990 17829 ft 322 kts 205°
2026-04-21 08:17 33.18102 -116.34171 17322 ft 323 kts 205°
2026-04-21 08:17 33.16123 -116.35333 16924 ft 320 kts 205°
2026-04-21 08:17 33.14136 -116.36499 16535 ft 317 kts 206°
2026-04-21 08:18 33.12165 -116.37652 16151 ft 315 kts 206°
2026-04-21 08:18 33.10205 -116.38794 15823 ft 312 kts 206°
2026-04-21 08:18 33.08256 -116.39925 15441 ft 311 kts 206°
2026-04-21 08:18 33.06317 -116.41052 15075 ft 309 kts 206°
2026-04-21 08:19 33.04387 -116.42179 14683 ft 308 kts 206°
2026-04-21 08:19 33.02468 -116.43302 14314 ft 306 kts 206°
2026-04-21 08:19 33.00586 -116.44486 13937 ft 306 kts 213°
2026-04-21 08:19 32.98922 -116.46058 13541 ft 305 kts 219°
2026-04-21 08:20 32.97312 -116.47698 13148 ft 303 kts 219°
2026-04-21 08:20 32.95713 -116.49320 12765 ft 301 kts 219°
2026-04-21 08:20 32.94118 -116.50930 12421 ft 299 kts 219°
2026-04-21 08:20 32.92535 -116.52524 12044 ft 298 kts 219°
2026-04-21 08:21 32.90957 -116.54111 11670 ft 296 kts 219°
2026-04-21 08:21 32.89391 -116.55686 11385 ft 292 kts 218°
2026-04-21 08:21 32.87852 -116.57235 11151 ft 287 kts 219°
2026-04-21 08:21 32.86341 -116.58756 10928 ft 282 kts 219°
2026-04-21 08:22 32.84852 -116.60252 10687 ft 278 kts 219°
2026-04-21 08:22 32.83542 -116.61909 10448 ft 275 kts 237°
2026-04-21 08:22 32.82921 -116.64036 10232 ft 275 kts 262°
2026-04-21 08:22 32.83111 -116.66250 10138 ft 270 kts 286°
2026-04-21 08:23 32.84047 -116.68182 10139 ft 274 kts 310°
2026-04-21 08:23 32.85573 -116.69489 10129 ft 268 kts 336°
2026-04-21 08:23 32.87368 -116.69921 10129 ft 264 kts
2026-04-21 08:23 32.89150 -116.69456 10139 ft 264 kts 27°
2026-04-21 08:24 32.90664 -116.68250 10139 ft 263 kts 40°
2026-04-21 08:24 32.92058 -116.66874 10139 ft 263 kts 42°
2026-04-21 08:24 32.93438 -116.65445 10139 ft 263 kts 43°
2026-04-21 08:24 32.94837 -116.63979 10138 ft 276 kts 43°
2026-04-21 08:25 32.96139 -116.62287 10112 ft 278 kts 65°
2026-04-21 08:25 32.96560 -116.60106 10123 ft 271 kts 97°
2026-04-21 08:25 32.96127 -116.57964 10126 ft 265 kts 119°
2026-04-21 08:25 32.95082 -116.56190 10113 ft 260 kts 140°
2026-04-21 08:26 32.93600 -116.55032 10114 ft 254 kts 161°
2026-04-21 08:26 32.91878 -116.54652 10117 ft 252 kts 182°
2026-04-21 08:26 32.90733 -116.54856 10115 ft 252 kts 197°
2026-04-21 08:26 32.89179 -116.55805 10118 ft 254 kts 215°
2026-04-21 08:27 32.87335 -116.57579 10141 ft 255 kts 219°
2026-04-21 08:27 32.86455 -116.58486 10136 ft 255 kts 220°
2026-04-21 08:27 32.85124 -116.59882 10134 ft 255 kts 220°
2026-04-21 08:27 32.83782 -116.61291 10057 ft 267 kts 220°
2026-04-21 08:28 32.82345 -116.62772 9641 ft 275 kts 219°
2026-04-21 08:28 32.80885 -116.64257 9284 ft 276 kts 219°
2026-04-21 08:28 32.79425 -116.65730 8929 ft 275 kts 219°
2026-04-21 08:28 32.77983 -116.67218 8584 ft 274 kts 225°
2026-04-21 08:29 32.76813 -116.69004 8241 ft 275 kts 239°
2026-04-21 08:29 32.75892 -116.70954 7899 ft 274 kts 240°
2026-04-21 08:29 32.74962 -116.72923 7552 ft 273 kts 240°
2026-04-21 08:29 32.74030 -116.74888 7208 ft 273 kts 240°
2026-04-21 08:30 32.73099 -116.76849 6874 ft 272 kts 240°
2026-04-21 08:30 32.72177 -116.78791 6524 ft 271 kts 240°
2026-04-21 08:30 32.71250 -116.80743 6168 ft 271 kts 240°
2026-04-21 08:30 32.70443 -116.82765 5829 ft 270 kts 250°
2026-04-21 08:31 32.69801 -116.84846 5528 ft 268 kts 250°
2026-04-21 08:31 32.69157 -116.86911 5219 ft 266 kts 250°
2026-04-21 08:31 32.68520 -116.88961 4913 ft 264 kts 251°
2026-04-21 08:31 32.67939 -116.90903 4612 ft 263 kts 251°
2026-04-21 08:32 32.67394 -116.93047 4288 ft 261 kts 263°
2026-04-21 08:32 32.67544 -116.95163 3990 ft 258 kts 285°
2026-04-21 08:32 32.68044 -116.97199 3687 ft 257 kts 286°
2026-04-21 08:32 32.68544 -116.99227 3405 ft 252 kts 286°
2026-04-21 08:33 32.69021 -117.01164 3095 ft 236 kts 286°
2026-04-21 08:33 32.69466 -117.02973 2825 ft 220 kts 286°
2026-04-21 08:33 32.69885 -117.04687 2571 ft 211 kts 286°
2026-04-21 08:33 32.70280 -117.06303 2337 ft 196 kts 286°
2026-04-21 08:34 32.70648 -117.07810 2095 ft 183 kts 286°
2026-04-21 08:34 32.70991 -117.09213 1834 ft 167 kts 286°
2026-04-21 08:34 32.71293 -117.10455 1596 ft 152 kts 286°
2026-04-21 08:34 32.71565 -117.11575 1380 ft 146 kts 286°
2026-04-21 08:35 32.71843 -117.12723 1160 ft 143 kts 286°
2026-04-21 08:35 32.72116 -117.13850 914 ft 142 kts 286°
2026-04-21 08:35 32.72377 -117.14972 665 ft 140 kts 285°
2026-04-21 08:35 32.72638 -117.16022 453 ft 140 kts 286°
2026-04-21 08:36 32.72907 -117.17130 209 ft 139 kts 286°
2026-04-21 08:36 32.73178 -117.18235 47 ft 139 kts 286°
2026-04-21 08:36 32.73420 -117.19225 25 ft 107 kts 286°
2026-04-21 08:36 32.73584 -117.19896 27 ft 61 kts 286°
2026-04-21 08:37 32.73633 -117.20192 26 ft 9 kts 239°
2026-04-21 08:37 32.73593 -117.20210 25 ft 8 kts 199°
2026-04-21 08:37 32.73533 -117.20219 25 ft 11 kts 154°
2026-04-21 08:37 32.73534 -117.20134 28 ft 14 kts 91°
2026-04-21 08:38 32.73507 -117.20015 25 ft 16 kts 105°
2026-04-21 08:38 32.73475 -117.19880 27 ft 18 kts 105°
2026-04-21 08:38 32.73438 -117.19730 26 ft 21 kts 108°
2026-04-21 08:38 32.73400 -117.19575 27 ft 19 kts 106°
2026-04-21 08:39 32.73350 -117.19459 27 ft 12 kts 158°
2026-04-21 08:39 32.73272 -117.19482 27 ft 0 kts 191°
2026-04-21 08:39 32.73260 -117.19484 25 ft 4 kts 191°
2026-04-21 08:39 32.73231 -117.19519 25 ft 8 kts 244°
2026-04-21 08:40 32.73234 -117.19566 23 ft 0 kts 284°